Omak, WA

9:34 AM PST on February 24, 2017 (GMT -0800)
Omak

Weather History for KOMK - January, 2013

Change the Weather History Date:

Sunday, January 27, 2013

  Actual Average Record
Temperature  
Mean Temperature 30 °F 29 °F  
Max Temperature 31 °F 35 °F 50 °F (1974)
Min Temperature 28 °F 22 °F -17 °F (1949)
Degree Days  
Heating Degree Days 35 36  
Month to date heating degree days 1138 1039  
Since 1 July heating degree days 3528 3788  
Cooling Degree Days 0 0  
Month to date cooling degree days 0 0  
Year to date cooling degree days 0 0  
Moisture  
Dew Point 26 °F    
Average Humidity 85    
Maximum Humidity 92    
Minimum Humidity 78    
Precipitation  
Precipitation T in 0.04 in 0.65 in (1995)
Month to date precipitation 0.60 1.71  
Year to date precipitation 0.60 1.71  
Sea Level Pressure  
Sea Level Pressure 30.00 in    
Wind  
Wind Speed 4 mph (South)    
Max Wind Speed 12 mph    
Max Gust Speed 15 mph    
Visibility 8 miles    
Events Snow    
T = Trace of Precipitation, MM = Missing Value Source: NWS Daily Summary

Daily Weather History Graph

Daily Weather History Graph

Search for Another Location

Airport or City:

Trip Planner

Search our weather history database for the weather conditions in past years. The results will help you decide how hot, cold, wet, or windy it might be!

Date:

Astronomy

Jan. 27, 2013 Rise Set
Actual Time 7:32 AM PST 4:49 PM PST
Civil Twilight 6:58 AM PST 5:23 PM PST
Nautical Twilight 6:20 AM PST 6:01 PM PST
Astronomical Twilight 5:43 AM PST 6:38 PM PST
Moon 5:57 PM PST (1/27) 7:21 AM PST (1/27)
Length of Visible Light 10h 24m
Length of Day
9h 16m
Full, 100% of the Moon is Illuminated
Jan 27
Full
Feb 3
Last Quarter
Feb 9
New
Feb 17
First Quarter
Feb 25
Full

Hourly Weather History & Observations

Time (PST) Temp. Windchill Dew Point Humidity Pressure Visibility Wind Dir Wind Speed Gust Speed Precip Events Conditions
1:53 AM 28.0 °F - 26.1 °F 92% 30.01 in 10.0 mi Calm Calm - N/A   Overcast
2:53 AM 28.0 °F - 25.0 °F 88% 30.01 in 10.0 mi Calm Calm - N/A   Overcast
3:53 AM 28.0 °F - 26.1 °F 92% 30.02 in 10.0 mi Calm Calm - N/A   Overcast
4:53 AM 28.0 °F - 25.0 °F 88% 30.02 in 8.0 mi Calm Calm - N/A   Overcast
5:53 AM 28.0 °F - 25.0 °F 88% 30.02 in 8.0 mi Calm Calm - N/A   Overcast
6:46 AM 28.4 °F - 24.8 °F 86% 29.99 in 2.5 mi Calm Calm - 0.00 in Snow Light Snow
6:53 AM 28.0 °F - 25.0 °F 88% 30.04 in 2.5 mi Calm Calm - 0.00 in Snow Light Snow
7:02 AM 28.4 °F - 24.8 °F 86% 29.99 in 3.0 mi Calm Calm - 0.00 in Snow Light Snow
7:53 AM 28.0 °F - 25.0 °F 88% 30.05 in 5.0 mi Calm Calm - 0.00 in   Overcast
8:28 AM 28.4 °F - 26.6 °F 93% 30.00 in 8.0 mi Calm Calm - N/A   Overcast
8:53 AM 28.0 °F - 26.1 °F 92% 30.05 in 6.0 mi Calm Calm - N/A   Overcast
9:53 AM 28.9 °F 25.2 °F 26.1 °F 89% 30.05 in 10.0 mi SSW 3.5 mph - N/A   Overcast
10:53 AM 30.0 °F 24.1 °F 26.1 °F 85% 30.05 in 7.0 mi South 5.8 mph - N/A   Overcast
11:53 AM 30.9 °F 24.3 °F 25.0 °F 79% 30.04 in 10.0 mi South 6.9 mph - 0.00 in   Overcast
12:53 PM 30.9 °F 22.2 °F 25.0 °F 79% 30.02 in 10.0 mi South 10.4 mph - N/A   Overcast
1:53 PM 30.9 °F 22.8 °F 24.1 °F 76% 30.01 in 10.0 mi SSW 9.2 mph - N/A   Overcast
2:53 PM 30.0 °F 21.7 °F 24.1 °F 79% 30.01 in 10.0 mi SSW 9.2 mph - N/A   Overcast
3:53 PM 30.0 °F 21.7 °F 24.1 °F 79% 30.01 in 10.0 mi SSW 9.2 mph - N/A   Overcast
4:18 PM 30.2 °F 21.9 °F 24.8 °F 80% 29.96 in 10.0 mi SSW 9.2 mph - N/A   Overcast
4:53 PM 28.9 °F 21.1 °F 24.1 °F 82% 30.00 in 10.0 mi SW 8.1 mph - N/A   Overcast
5:43 PM 28.4 °F 21.2 °F 24.8 °F 86% 29.95 in 10.0 mi SSW 6.9 mph - N/A   Overcast
5:53 PM 28.9 °F 21.9 °F 25.0 °F 85% 30.00 in 10.0 mi SSW 6.9 mph - N/A   Overcast
6:26 PM 28.4 °F 22.2 °F 24.8 °F 86% 29.96 in 10.0 mi South 5.8 mph - N/A   Overcast
6:53 PM 28.9 °F 23.9 °F 25.0 °F 85% 30.01 in 10.0 mi South 4.6 mph - N/A   Overcast
7:53 PM 28.0 °F 24.2 °F 26.1 °F 92% 30.00 in 9.0 mi SSE 3.5 mph - N/A   Overcast
8:53 PM 28.0 °F 22.8 °F 26.1 °F 92% 30.01 in 4.0 mi South 4.6 mph - N/A   Overcast
9:25 PM 28.4 °F 23.3 °F 26.6 °F 93% 29.95 in 4.0 mi South 4.6 mph - N/A   Overcast
9:53 PM 28.9 °F 23.9 °F 27.0 °F 92% 30.00 in 3.0 mi SSE 4.6 mph - N/A   Overcast
10:28 PM 28.4 °F 24.6 °F 26.6 °F 93% 29.94 in 4.0 mi South 3.5 mph - N/A   Overcast
10:53 PM 28.9 °F 25.2 °F 27.0 °F 92% 29.99 in 6.0 mi South 3.5 mph - N/A   Overcast
11:27 PM 28.4 °F 24.6 °F 26.6 °F 93% 29.95 in 7.0 mi South 3.5 mph - N/A   Overcast
11:41 PM 28.4 °F - 26.6 °F 93% 29.95 in 9.0 mi Calm Calm - N/A   Overcast
11:53 PM 28.9 °F - 27.0 °F 92% 29.99 in 10.0 mi Calm Calm - N/A   Overcast